Lake Eufaula Weather Center

Moon Phase Calendar



Lake Eufaula Water Level
Online Cameras

 


      

Current Conditions in Eufaula
2/20/2024 4:45:08 PM

74°F
Feels Like 73
Clouds
Humidity
41%
Pressure
30.06"
Wind
9.2 mph (SSE)
Dew Point
49°F
UV Index
0/10 (Low)
Visibility
6 mi

Hourly Forecast

Date & Time Tue, Feb 20
4:00 PM
Tue, Feb 20
5:00 PM
Tue, Feb 20
6:00 PM
Tue, Feb 20
7:00 PM
Tue, Feb 20
8:00 PM
Tue, Feb 20
9:00 PM
Tue, Feb 20
10:00 PM
Tue, Feb 20
11:00 PM
Wed, Feb 21
12:00 AM
Wed, Feb 21
1:00 AM
Wed, Feb 21
2:00 AM
Wed, Feb 21
3:00 AM
Wed, Feb 21
4:00 AM
Wed, Feb 21
5:00 AM
Wed, Feb 21
6:00 AM
Wed, Feb 21
7:00 AM
Wed, Feb 21
8:00 AM
Wed, Feb 21
9:00 AM
Wed, Feb 21
10:00 AM
Wed, Feb 21
11:00 AM
Wed, Feb 21
12:00 PM
Wed, Feb 21
1:00 PM
Wed, Feb 21
2:00 PM
Wed, Feb 21
3:00 PM
Wed, Feb 21
4:00 PM
Wed, Feb 21
5:00 PM
Wed, Feb 21
6:00 PM
Wed, Feb 21
7:00 PM
Wed, Feb 21
8:00 PM
Wed, Feb 21
9:00 PM
Wed, Feb 21
10:00 PM
Wed, Feb 21
11:00 PM
Thu, Feb 22
12:00 AM
Thu, Feb 22
1:00 AM
Thu, Feb 22
2:00 AM
Thu, Feb 22
3:00 AM
Thu, Feb 22
4:00 AM
Thu, Feb 22
5:00 AM
Thu, Feb 22
6:00 AM
Thu, Feb 22
7:00 AM
Thu, Feb 22
8:00 AM
Thu, Feb 22
9:00 AM
Thu, Feb 22
10:00 AM
Thu, Feb 22
11:00 AM
Thu, Feb 22
12:00 PM
Thu, Feb 22
1:00 PM
Thu, Feb 22
2:00 PM
Thu, Feb 22
3:00 PM
Condition
Clouds

Clouds

Clouds

Clouds

Clouds

Clouds

Clouds

Clouds

Clouds

Clouds

Clouds

Clouds

Clouds

Clouds

Clouds

Clouds

Clouds

Clouds

Clouds

Clouds

Clouds

Clouds

Clouds

Clouds

Clouds

Clouds

Clouds

Clouds

Clouds

Clouds

Clouds

Clouds

Clouds

Clear

Clear

Clouds

Clouds

Clouds

Clouds

Clouds

Clouds

Clouds

Clouds

Clouds

Clouds

Clouds

Clouds

Clouds
Temperature 74°F74°F72°F68°F65°F62°F59°F59°F59°F59°F58°F58°F57°F56°F56°F56°F58°F61°F65°F69°F73°F76°F77°F78°F77°F74°F71°F69°F69°F68°F68°F67°F66°F66°F65°F64°F64°F62°F61°F59°F58°F59°F61°F64°F66°F67°F67°F67°F
Feels Like 72°F73°F71°F67°F63°F60°F58°F58°F58°F58°F57°F57°F56°F56°F55°F56°F57°F60°F64°F68°F72°F75°F77°F77°F76°F74°F71°F69°F68°F68°F67°F66°F66°F65°F65°F64°F63°F62°F60°F57°F56°F57°F59°F63°F65°F66°F66°F65°F
Cloudiness 17%18%19%46%40%46%57%66%71%47%43%33%34%31%33%100%100%100%100%100%100%94%97%98%99%99%99%96%50%40%33%26%22%0%1%34%48%56%60%41%58%40%30%24%21%20%19%46%
Visibility 6 mi6 mi6 mi6 mi6 mi6 mi6 mi6 mi6 mi6 mi6 mi6 mi6 mi6 mi6 mi6 mi6 mi6 mi6 mi6 mi6 mi6 mi6 mi6 mi6 mi6 mi6 mi6 mi6 mi6 mi6 mi6 mi6 mi6 mi6 mi6 mi6 mi6 mi6 mi6 mi6 mi6 mi6 mi6 mi6 mi6 mi6 mi6 mi
Precipitation 0%0%0%0%0%0%0%0%0%0%0%0%0%0%0%0%0%0%0%0%0%0%0%0%0%0%0%0%0%0%0%0%0%0%0%0%0%0%0%0%0%0%0%0%0%0%0%0%
Humidity 39%41%44%50%55%62%69%71%73%76%79%81%84%86%87%86%82%74%65%55%48%42%40%41%45%50%54%56%60%62%65%69%72%75%77%77%76%76%75%66%47%39%49%56%56%52%45%40%
Dew Point 47°F49°F49°F49°F48°F48°F49°F50°F50°F51°F51°F52°F52°F52°F52°F52°F52°F52°F52°F52°F52°F51°F51°F52°F54°F54°F54°F53°F54°F54°F55°F56°F57°F57°F57°F57°F56°F54°F52°F47°F38°F34°F41°F48°F50°F48°F45°F42°F
Pressure 30.06"30.06"30.06"30.06"30.06"30.06"30.06"30.06"30.03"30.03"30"30"29.97"29.97"29.97"29.97"29.97"29.97"29.94"29.91"29.91"29.85"29.83"29.8"29.77"29.77"29.74"29.74"29.71"29.71"29.68"29.68"29.65"29.65"29.65"29.62"29.62"29.62"29.65"29.68"29.71"29.74"29.74"29.77"29.77"29.8"29.8"29.8"
Wind Speed 9.8 mph9.2 mph7.8 mph7.6 mph8.9 mph9.1 mph10.4 mph11 mph11.6 mph11.1 mph11.1 mph10.9 mph10.5 mph9.8 mph10.1 mph11.1 mph11.5 mph12.3 mph14 mph14.9 mph15.5 mph16.6 mph16.3 mph15.3 mph14.4 mph14.4 mph15 mph16.2 mph18.2 mph19.2 mph19.6 mph20.4 mph20.4 mph20.7 mph19.6 mph18 mph16.3 mph13.9 mph11.2 mph10.1 mph8.9 mph11 mph13.2 mph15.5 mph17.2 mph16.8 mph17.2 mph16.3 mph
Wind
Direction
172°
S
163°
SSE
156°
SSE
151°
SSE
159°
SSE
165°
SSE
168°
SSE
175°
S
182°
S
183°
S
185°
S
188°
S
189°
S
190°
S
186°
S
188°
S
195°
SSW
200°
SSW
207°
SSW
212°
SSW
212°
SSW
211°
SSW
211°
SSW
208°
SSW
202°
SSW
199°
SSW
193°
SSW
191°
S
187°
S
189°
S
191°
S
192°
SSW
200°
SSW
201°
SSW
204°
SSW
210°
SSW
216°
SW
220°
SW
222°
SW
235°
SW
256°
WSW
288°
WNW
322°
NW
342°
NNW
347°
NNW
347°
NNW
348°
NNW
351°
N

Daily Forecast

Date High Low Precip. Humidity
Today
Feb 20

Clear
74 °F
43 °F
0%
40%
Wednesday
Feb 21

Clouds
78 °F
56 °F
0%
48%
Thursday
Feb 22

Clouds
67 °F
52 °F
0%
56%
Friday
Feb 23

Clear
68 °F
46 °F
0%
33%
Saturday
Feb 24

Clear
71 °F
46 °F
0%
24%
Sunday
Feb 25

Clouds
77 °F
59 °F
0%
45%
Monday
Feb 26

Clouds
82 °F
53 °F
0%
44%
Tuesday
Feb 27

Rain
78 °F
58 °F
87%
74%
Wednesday
Feb 28

Clear
60 °F
44 °F
59%
26%
Thursday
Feb 29

Clear
67 °F
43 °F
0%
33%
Friday
Mar 1

Clear
68 °F
46 °F
0%
38%
Saturday
Mar 2

Clear
67 °F
43 °F
0%
32%
Sunday
Mar 3

Clear
69 °F
45 °F
0%
34%
Monday
Mar 4

Rain
71 °F
58 °F
28%
54%
Tuesday
Mar 5

Rain
75 °F
59 °F
51%
56%
Wednesday
Mar 6

Rain
68 °F
59 °F
100%
72%

Temperature 8-14 Day Outlook



Precipitation 8-14 Day Outlook






About Us
Contact Us
Site Map
Search Site
Advertise With Us
   
EufaulaOK.USLakes.info
THE LAKE EUFAULA WEBSITE

Copyright 2024, Lakes Online
Privacy    |    Legal